User: anonymous
Location: Caltech
(34.1382°N, 118.1253°W)
Time: 07:00:00
(UTC-07:00)
Language:

Iridium 65 - Orbit

View from above orbital plane
View from above orbital plane
View from above satellite
View from above satellite

Ground track
Ground track

The orbit data is extracted from the following two-line orbital elements,

1 25288U 98021D   14262.16012657  .00000134  00000-0  40937-4 0  9061
2 25288 086.3917 282.6995 0002380 103.3552 321.9133 14.34218759861397
Epoch (UTC): 19 September 2014 03:50:34
Eccentricity: 0.0002380
inclination: 86.3917°
perigee height: 776 km
apogee height: 779 km
right ascension of ascending node: 282.6995°
argument of perigee: 103.3552°
revolutions per day: 14.34218759
mean anomaly at epoch: 321.9133°
orbit number at epoch: 86139

The dashed part of the orbit path shows where the satellite is in the earth's shadow,  

DLR